Tracking 29892 objects as of 21-Nov-2024
HD Live streaming from Space Station
objects crossing your sky now

STARLINK-30270

Track STARLINK-30270 now!
10-day predictions
STARLINK-30270 is classified as:


NORAD ID: 57530
Int'l Code: 2023-115K
Perigee: 565.2 km
Apogee: 567.2 km
Inclination: 43.0 °
Period: 95.8 minutes
Semi major axis: 6937 km
RCS: Unknown
Launch date: August 8, 2023
Source: United States (US)
Launch site: AIR FORCE WESTERN TEST RANGE (AFWTR)
Your satellite tracking list
Your tracking list is empty




NASA's NSSDC Master Catalog

Two Line Element Set (TLE):
1 57530U 23115K   24325.74735725 -.00000985  00000-0 -57841-4 0  9991
2 57530  43.0044  59.8039 0001425 257.7570 102.3113 15.02547553 71024
Source of the keplerian elements: AFSPC